Погода в Нововязниках

Россия / Владимирская область     56°11′44″N   42°10′11″E
темп.,
°C
ветер,
м/с
пор.,
м/с
влажн.,
%
обл.,
%
осадки,
мм/ч
давл.,
гПа
погр.,
м
6 марта, сб
сб600:00−13сз33926 0.0 101259
03:00−13з23903 0.0 101432
06:00−14з23900 0.0 101429
09:00−11зсз35910 0.0 1015238
12:00−8зсз348585 0.0 1015514
15:00−6зсз347892 0.1 1014832
18:00−9з3390100 0.1 101452
21:00−12з239361 0.1 101334
7 марта, вс
вс700:00−13зюз23930 0.0 101243
03:00−13ююз36950 0.0 1010103
06:00−13ююз5109258 0.0 1007251
09:00−9ю7148979 0.0 1003555
12:00−7ююз81390100 0.4 998914
15:00−5ююз81393100 1.6 9941018
18:00−4ююз71395100 1.0 990706
21:00−7зсз51385100 2.3 9911125
8 марта, пн
пн800:00−10зюз6148333 0.0 992503
03:00−10зюз6148520 0.0 993420
06:00−12зюз512907 0.0 993317
09:00−9з6127948 0.0 994592
12:00−8зсз6990100 0.3 996659
15:00−7сз6888100 0.4 999917
18:00−9сз51092100 0.2 1002608
21:00−12сз499495 0.3 1006261
9 марта, вт
вт900:00−14сз379676 0.0 1009175
03:00−17сз379773 0.1 1011146
06:00−20сз359872 0.0 1013114
09:00−18ссз369343 0.0 1015267
12:00−14сз358376 0.0 1016573
15:00−13сз468488 0.0 1017711
18:00−17ссз3693100 0.0 1018124
21:00−21сз359771 0.0 1020105
10 марта, ср
ср1000:00−22ссз349853 0.0 102275
03:00−24ссз339834 0.0 102370
06:00−25ссз239841 0.0 102445
09:00−25ссз359573 0.0 1023256
12:00−20ссз358681 0.0 1024514
15:00−17ссз358391 0.0 1024608
18:00−20сз339276 0.0 102451
21:00−22сз239338 0.0 102635